Tracking 19242 objects as of 16-Aug-2018
HD Live streaming from Space Station
objects crossing your sky now

SL-12 R/B(AUX MOTOR) DEB

Track SL-12 R/B(AUX MOTOR) DEB now!
10-day predictions


NORAD ID: 41805
Int'l Code: 2006-062K
Perigee: 404.3 km
Apogee: 18,982.3 km
Inclination: 65.4 °
Period: 337.7 minutes
Semi major axis: 16064 km
RCS: Unknown
Launch date: December 25, 2006
Source: Commonwealth of Independent States (former USSR) (CIS)
Launch site: TYURATAM MISSILE AND SPACE COMPLEX (TTMTR)

Note: This is SATELLITE DEBRIS
aabbcc
Your satellite tracking list
Your tracking list is empty




NASA's NSSDC Master Catalog

Two Line Element Set (TLE):
1 41805U 06062K   18224.32802261 -.00000056 +00000-0 +10032-3 0  9994
2 41805 065.3917 344.0545 5782370 346.2686 002.9729 04.26392848029425
Source of the keplerian elements: AFSPC